Find Starlink 4297

NORAD ID: 53543 Int'l Des: 2022-101 Owner: SPXS Country: US Constellation: starlink operational
LEOCIRCULAR

当前视图

正在加载3D地球...

About Starlink 4297

Starlink 4297 (NORAD 53543) is a starlink constellation satellite (v1.5) launched Aug 19, 2022 by SPXS of US. It operates in LEO, CIRCULAR orbit with a mass of 300.00 kg.

关于 Starlink 4297

正在加载描述...

即将过境

Passes for default location (London). Set your location on the main map for personalized predictions.

高度历史

Loading altitude history...

两行轨道根数

1 53543U 22101S 26170.91668981 .00070697 00000-0 36578-2 0 9990
2 53543 53.1605 325.0460 0000933 26.5640 19.7183 15.15611534 5691
Epoch: Jun 19, 2026 • Age: 9 hours

当前状态

高度 521.4 km
速度 7.60 km/s
星下点 -10.71°S, 61.84°W
发射日期 Aug 19, 2022
运行时间 3.8 years
类型 internet

技术详情

分类 Payload
质量 300.00 kg
干质量 290.00 kg
总质量 300.00 kg
长度 0.20 m
直径 2.80 m
跨度 9.00 m
形状 Box + pan
制造商 SPXS
平台类型 Starlink
阶段状态 In Orbit
所有者/国家 SPXS/US

Most Searched